Regional Weather Roundup
Issued by NWS

Home | Current Version | Previous Version | Graphics & Text | Print | Product List | Glossary On
Versions: 1 2 3 4 5 6 7 8 9 10 11 12 13 14 15 16 17 18 19 20 21 22 23 24 25 26 27 28 29 30 31 32 33 34 35 36 37 38 39 40 41 42 43 44 45 46 47 48 49 50
000
ASUS43 KMKX 290100
RWRWI

WISCONSIN REGIONAL WEATHER ROUNDUP
NATIONAL WEATHER SERVICE MILWAUKEE/SULLIVAN WI
800 PM CDT FRI AUG 28 2015

NOTE: "FAIR" INDICATES FEW OR NO CLOUDS BELOW 12,000 FEET WITH NO
SIGNIFICANT WEATHER AND/OR OBSTRUCTIONS TO VISIBILITY.

WIZ001-002-006>008-014>016-023>028-290200-
NORTHWEST WISCONSIN

CITY           SKY/WX    TMP DP  RH WIND       PRES   REMARKS
SUPERIOR ARPT  PTCLDY    73  62  68 SW7       29.95R
ASHLAND        PTCLDY    70  63  78 S9        29.99R
HAYWARD        PTCLDY    68  61  78 S8        30.02R
SIREN          PTCLDY    70  60  71 SW8       30.00R
CUMBERLAND     CLEAR     64  59  82 S9        30.02R
RICE LAKE      MOCLDY    67  59  75 S12       30.04R
CHETEK         CLOUDY   N/A N/A N/A S8        30.03R
LADYSMITH      PTCLDY    67  62  85 S3        30.05R
EAU CLAIRE     PTCLDY    61  55  82 S9        30.03F
MENOMONIE      MOCLDY    63  59  88 CALM      30.04R
NEW RICHMOND   MOCLDY    64  57  79 S9        30.03R
OSCEOLA        CLEAR     68  60  74 S13       30.03S
$$

WIZ003>005-009-010-017-018-290200-
NORTH CENTRAL WISCONSIN

CITY           SKY/WX    TMP DP  RH WIND       PRES   REMARKS
MANITOWISH WTR PTCLDY    64  61  88 SW3       30.04R
ARBOR VITAE    PTCLDY    64  61  88 SW6       30.06R
WOODRUFF       PTCLDY    64  61  88 SW6       30.06R
RHINELANDER    MOCLDY    65  61  87 SW5       30.07R
EAGLE RIVER    MOCLDY    64  58  78 SW5       30.05R
LAND O LAKES   MOCLDY    67  61  80 SW6       30.06R
PHILLIPS       MOCLDY    64  62  91 CALM      30.05R
TOMAHAWK       CLOUDY    64  60  87 CALM      30.06S
MEDFORD        CLOUDY    63  61  95 SW5       30.07R
MERRILL        CLOUDY    63  62  98 S3        30.07R
$$

WIZ029-030-035-036-043>047-290200-
CENTRAL WISCONSIN

CITY           SKY/WX    TMP DP  RH WIND       PRES   REMARKS
WAUSAU         CLOUDY    63  60  90 SW3       30.07R
MOSINEE        NOT AVBL
MARSHFIELD     CLOUDY    61  56  83 S16       30.08R
STEVENS POINT  LGT RAIN  61  60  96 S13       30.09R
WAUPACA        RAIN      62  61  97 SW5       30.10R
WAUTOMA        LGT RAIN  63  63 100 CALM      30.11R FOG
WISC RAPIDS    LGT RAIN  61  58  90 SW9       30.11R FOG
CAMP DOUGLAS   NOT AVBL
$$

WIZ011>013-019>022-031-037>040-048>050-290200-
NORTHEAST WISCONSIN

CITY           SKY/WX    TMP DP  RH WIND       PRES   REMARKS
ANTIGO         CLOUDY    62  61  94 S5        30.08R
SHAWANO        CLOUDY    65  63  92 S5        30.06S FOG
OCONTO         CLOUDY    63  63 100 CALM      30.05S
STURGEON BAY   CLOUDY    64  61  88 SW3       30.09R
GREEN BAY      LGT RAIN  63  62  97 CALM      30.07R FOG
MANITOWOC      LGT RAIN  61  59  94 MISG      30.08F FOG
APPLETON       DRIZZLE   63  63 100 VRB5      30.06R
CLINTONVILLE   RAIN      63  61  94 S6        30.06R
OSHKOSH        LGT RAIN  64  61  90 S9        30.08R
$$

WIZ032>034-041-042-053>061-290200-
SOUTHWEST WISCONSIN

CITY           SKY/WX    TMP DP  RH WIND       PRES   REMARKS
LA CROSSE      RAIN      59  57  93 E6        30.04R FOG
SPARTA         LGT RAIN  58  56  92 SE5       30.07S
VIROQUA        CLOUDY    58  58 100 E12       30.05S
BOSCOBEL       HVY RAIN  63  61  93 E8        30.00F FOG
PRAIRIE DU CHI HVY RAIN  62  60  94 E9G16     29.99F
PLATTEVILLE    CLOUDY    64  63  97 SE9       30.02R
$$

WIZ056-057-062-063-064-067-068-290200-
SOUTH CENTRAL WISCONSIN

CITY           SKY/WX    TMP DP  RH WIND       PRES   REMARKS
REEDSBURG      LGT RAIN  59  58  96 NE8       30.06S
BARABOO/DELLS  LGT RAIN  60  58  92 NE8       30.08R
LONE ROCK      NOT AVBL
MINERAL POINT  RAIN      63  63 100 E7        30.04R
MADISON        LGT RAIN  64  62  93 SE6       30.07F
MIDDLETON      CLOUDY    65  64  98 E6        30.06F
WATERTOWN      LGT RAIN  63  63 100 NE5       30.09S
MONROE         LGT RAIN  63  61  94 E7        30.05F
JANESVILLE     NOT AVBL
$$

WIZ051-052-058>065-066-070>072-290200-
SOUTHEAST WISCONSIN

CITY           SKY/WX    TMP DP  RH WIND       PRES   REMARKS
MILWAUKEE      LGT RAIN  66  63  90 S5        30.09S FOG
WAUKESHA       CLEAR     64  63  94 CALM      30.11S
MILWAUKEE/TIMM LGT RAIN  66  63  88 CALM      30.11R
RACINE         CLOUDY    64  61  90 E3        30.10S FOG
BURLINGTON     CLOUDY    63  62  97 CALM      30.09S FOG
KENOSHA        CLOUDY    65  62  90 NE6       30.09S
FOND DU LAC    RAIN      63  59  87 SE8       30.09R
SHEBOYGAN      LGT RAIN  65  63  93 S6        30.10R FOG
WEST BEND      LGT RAIN  64  61  88 CALM      30.10R
JUNEAU         RAIN      62  60  93 SE7       30.11S
$$

LSZ147-162-290200-
LAKE SUPERIOR

STATION/POSITION TIME  TEMP    WIND        PRES    WAVE
                       AIR SEA DIR/SP/G            HT/PER
                 (UTC) (F)     (DEG/KT/KT) (MB)    (FT/S)
W MID LAKE BUOY  2350   61 56  230/  6/  8 1013.4R   0
DEVILS ISLAND    0000   72     170/  7/  7 1013.3R
PORT WING        0000   76     200/  5/  8 1013.5R
SAXON HARBOR     0000   75     200/  6/  9 1013.9
$$

LMZ867-665-643>646-290200-
LAKE MICHIGAN

STATION/POSITION TIME  TEMP    WIND        PRES    WAVE
                       AIR SEA DIR/SP/G            HT/PER
                 (UTC) (F)     (DEG/KT/KT) (MB)    (FT/S)
CHAMBERS ISLAND  0000   65     190/  7/ 13 1017.3S
S GREEN BAY BUOY 0000   65 62  220/ 10/ 12 1019.0
N MID LAKE BUOY  2350   64 64  210/ 17/ 19 1016.9R   3/ 4
NORTHPORT PIER   0000   65     160/  4/  7 1017.3S
SISTER BAY       2319   68     230/ 17/ 20   N/A
ALGOMA LAKESHORE 0014          230/  6/  7   N/A
SHEBOYGAN LAKESH 0000   62     200/  5/  5 1019.1R
PORT WASHINGTON  0000   57      80/  1/  2 1019.3S
ATWATER BUOY     0000   57 48  170/  4/  4 1020.0R
MILWAUKEE LAKESH 0000   59     190/  1/  1   N/A
S MID LAKE BUOY  2350   68 69  110/  6/  8 1018.1F   1
KENOSHA   LAKESH 0000   63     170/  3/  5 1018.3S
$$

TC  - TEMPERATURE IN CELSIUS
VSB - VISIBILITY IN STATUTE MILES
WCI - WIND CHILL INDEX
HX  - HEAT INDEX



USA.gov is the U.S. government's official web portal to all federal, state and local government web resources and services.